Погода в Бешаре

Алжир     31°36′41″N   2°16′45″W
темп.,
°C
ветер,
м/с
пор.,
м/с
влажн.,
%
обл.,
%
осадки,
мм/ч
давл.,
гПа
погр.,
м
21 июня, пн
пн2101:00+27ю22100 0.0 101011
04:00+25ююз11130 0.0 100911
07:00+25ююв11130 0.0 101011
10:00+31ююз34100 0.0 1011672
13:00+35ююз7980 0.0 10102015
16:00+38юз101260 0.0 10073166
19:00+36юз101160 0.0 10063004
22:00+32ююз51190 0.0 1009181
22 июня, вт
вт2201:00+29ююз33120 0.0 100926
04:00+26юз12160 0.0 100912
07:00+26юз11200 0.0 101016
10:00+31ююз23170 0.0 1010560
13:00+35юз57120 0.0 10092013
16:00+37юз7990 0.0 10072868
19:00+37ююз7970 0.0 10063509
22:00+33ююз5990 0.0 1008154
23 июня, ср
ср2301:00+28ссз23200 0.0 100968
04:00+27св34230 0.0 100948
07:00+25всв23300 0.0 101069
10:00+30в23240 0.0 1010715
13:00+36вюв45130 0.0 10102243
16:00+39ююз7950 0.0 10073387
19:00+38юз7950 0.0 10063696
22:00+33ю3480 0.0 100931
24 июня, чт
чт2401:00+30ююз3390 0.0 101013
04:00+27ююз11110 0.0 100911
07:00+27ссв11110 0.0 101011
10:00+34юв2270 0.0 1011666
13:00+38ююз5860 0.0 10102080
16:00+39юз81070 0.0 10093363
19:00+39ююз7961 0.0 10084940
22:00+35ююз4495 0.0 101150
25 июня, пт
пт2501:00+32ююз22113 0.0 101112
04:00+29ю22140 0.0 101111
07:00+30ссв33131 0.0 101122
10:00+35ссв22100 0.0 1011593
13:00+40ююз51372 0.0 10104341
16:00+42ююз912638 0.0 10085540
19:00+40юз1010728 0.0 10085015
22:00+35юз34104 0.0 101033